Regional Weather Roundup
Issued by NWS Kansas City/Pleasant Hill, MO

Home | Current Version | Previous Version | Graphics & Text | Print | Product List | Glossary Off
Versions: 1 2 3 4 5 6 7 8 9 10 11 12 13 14 15 16 17 18 19 20 21 22 23 24 25 26 27 28 29 30 31 32 33 34 35 36 37 38 39 40 41 42 43 44 45 46 47 48 49 50

423
ASUS43 KEAX 181110
RWREAX

WEATHER ROUNDUP FOR EASTERN KANSAS AND NORTHWEST MISSOURI
NATIONAL WEATHER SERVICE KANSAS CITY/PLEASANT HILL MO
500 AM CST WED JAN 18 2017

KSZ040-057-103>105-MOZ028-029-037-043-181200-
...KANSAS CITY METROPOLITAN AREA...

CITY           SKY/WX    TMP DP  RH WIND       PRES   REMARKS
K.C. INTL      CLOUDY    28  26  92 S8        30.14R FOG     WCI  20
K.C. DOWNTOWN  CLOUDY    30  29  96 SW5       30.15S WCI  25
LEES SUMMIT    FOG       31  31 100 S7        30.16R VSB 1/4 WCI  24
OLATHE - IXD   FOG       27  27 100 S6        30.14F VSB 1/2 WCI  20
OLATHE - OJC   FOG       28  28 100 S6        30.14S VSB 1/2 WCI  22
LAWRENCE       CLOUDY    23  23 100 E6        30.14F FOG     WCI  16

$$

MOZ001>008-011>017-020>025-030>033-038>040-044>046-053-054-181200-
...NORTHERN AND CENTRAL MISSOURI...

CITY           SKY/WX    TMP DP  RH WIND       PRES   REMARKS
ST. JOSEPH     FOG       28  28 100 S7        30.13F VSB 1/4 WCI  21
MOSBY          FOG       28  28 100 CALM      30.16R VSB<1/4
WARRENSBURG    CLOUDY    36  34  93 SW6       30.17S FOG     WCI  31
WHITEMAN AFB   CLOUDY    36  36 100 SW9       30.16S WCI  29
CLINTON        CLOUDY    37  37 100 CALM      30.20R FOG
SEDALIA        CLOUDY    37  36  96 SW6       30.19R FOG     WCI  32
WARSAW         NOT AVBL
CHILLICOTHE      N/A     33  33 100 SW3       30.15S
KIRKSVILLE     CLOUDY    32  31  96 CALM      30.13F

$$

MOZ041-047>049-056>058-063>065-088>090-097-181200-
...EASTERN AND SOUTHERN MISSOURI...

CITY           SKY/WX    TMP DP  RH WIND       PRES   REMARKS
ST. LOUIS INTL CLOUDY    39  33  79 NW5       30.19R
SPIRIT OF STL  CLOUDY    38  33  82 W3        30.20R
COLUMBIA       CLOUDY    36  33  89 SW3       30.19R
JEFFERSON CITY CLOUDY    37  31  78 W3        30.21R
ROLLA          CLOUDY    35  32  88 W5        30.17R WCI  31
OSAGE BEACH    CLOUDY    37  34  89 CALM      30.20R
SPRINGFIELD    FOG       36  35  96 S3        30.16S VSB 1/2
BRANSON        FOG       36  36 100 CALM      30.18R VSB 1/4
JOPLIN         FOG       36  36 100 SE6       30.18R VSB 1/4 WCI  31
WEST PLAINS    FOG       36  35  96 N5        30.17F VSB 3/4 WCI  32

$$

IAZ060-094-KSZ022-034>040-054-083-096-NEZ052-066-093-181200-
...KANSAS...SOUTHEAST NEBRASKA AND IOWA...

CITY           SKY/WX    TMP DP  RH WIND       PRES   REMARKS
TOPEKA         CLOUDY    26  22  84 CALM      30.12F
MANHATTAN      CLOUDY    24  22  91 CALM      30.11F
EMPORIA        CLEAR     28  27  96 SE8       30.12S WCI  20
CHANUTE        FOG       29  28  96 SE7       30.15F VSB 1/4 WCI  22
WICHITA        CLOUDY    33  30  88 E3        30.10F
OMAHA          CLOUDY    25  21  85 SE9       30.06F WCI  15
LINCOLN        CLOUDY    28  26  92 S5        30.06F WCI  23
FALLS CITY     CLOUDY    26  24  92 SE5       30.09F WCI  20
LAMONI         FOG       30  30 100 S7        30.10F VSB 1/4 WCI  23
DES MOINES     CLOUDY    30  28  92 SE6       30.09S FOG     WCI  24

$$





USA.gov is the U.S. government's official web portal to all federal, state and local government web resources and services.